Location: Lombard
(41.8800°N, 88.0080°W)
Time: 00:23:38
(UTC-05:00)

Tiros 1 - Pass Details

Date: 02 February 2023
Orbit: 628 x 662 km, 48.4° (Epoch: 20 March)

Event Time Altitude Azimuth Distance (km) Brightness Sun altitude
Rises 00:38:59 0° 234° (SW) 2,900 - -64.0°
Reaches altitude 10° 00:41:17 10° 232° (SW) 1,997 - -63.8°
Maximum altitude 00:45:52 73° 148° (SSE) 662 - -63.5°
Drops below altitude 10° 00:50:30 10° 65° (ENE) 2,020 - -63.2°
Sets 00:52:50 0° 63° (ENE) 2,936 - -63.0°
